Location: Unspecified
(40.7945°N, 0.0000°E)
Time: 08:47:29
(UTC+00:00)

deb Explorer IX - Pass Details

Date: 25 January 2021
Orbit: 537 x 1103 km, 38.8° (Epoch: 23 February)

Event Time Altitude Azimuth Distance (km) Brightness Sun altitude
Rises 19:27:26 0° 268° (W) 3,622 ? -26.1°
Reaches altitude 10° 19:30:15 10° 266° (W) 2,589 ? -26.7°
Enters shadow 19:36:16 73° 193° (SSW) 840 ? -27.8°
